GW5607 Weather Reports


time (UTC)temp
F
wind
direction
speed
knots
gust
knots
rain 1hr
in
rain 24hr
in
rain mn
in
humidity
%
barometer
mb
20260504160250 78 201 1.7 2.6 0.00 0.00 0.00 45 1011.3
20260504150716 74 237 2.6 3.5 0.00 0.00 0.00 51 1011.9
20260504150213 73 183 0.0 0.9 0.00 0.00 0.00 54 1011.8
20260504141142 69 200 0.9 1.7 0.00 0.00 0.00 60 1012.2
20260504140639 68 199 1.7 1.7 0.00 0.00 0.00 63 1012.0
20260504140134 68 176 0.0 0.0 0.00 0.00 0.00 66 1011.8
20260504130602 63 184 0.9 0.9 0.00 0.00 0.00 69 1012.3
20260504110450 60 173 0.0 0.0 0.00 0.00 0.00 68 1011.4
20260504100412 62 180 0.0 0.0 0.00 0.00 0.00 63 1011.3
20260504081805 60 170 0.0 0.9 0.00 0.00 0.00 61 1011.6
20260504081302 60 183 0.0 0.0 0.00 0.00 0.00 60 1011.5
20260504080758 60 183 0.9 0.9 0.00 0.00 0.00 60 1011.9
20260504080255 60 199 0.0 0.9 0.00 0.00 0.00 60 1011.5
20260504070222 60 177 0.0 0.9 0.00 0.00 0.00 59 1012.2
20260504060143 61 172 0.0 0.0 0.00 0.00 0.00 57 1013.0
20260504050611 61 172 0.0 0.0 0.00 0.00 0.00 55 1013.1
20260504050108 61 175 0.0 0.9 0.00 0.00 0.00 54 1013.1
20260504045605 61 180 0.0 0.0 0.00 0.00 0.00 54 1013.1
20260504045100 61 182 0.0 0.9 0.00 0.00 0.00 54 1013.3
20260504044558 61 173 0.0 0.9 0.00 0.00 0.00 54 1013.1
20260504044054 61 173 0.0 0.9 0.00 0.00 0.00 54 1013.4
20260504043552 61 179 0.0 0.0 0.00 0.00 0.00 53 1013.1
20260504043049 61 170 0.0 0.0 0.00 0.00 0.00 53 1013.2
20260504042546 61 172 0.0 0.0 0.00 0.00 0.00 53 1013.3
20260504042043 61 169 0.9 0.9 0.00 0.00 0.00 53 1013.2
20260504041539 61 180 0.0 0.0 0.00 0.00 0.00 53 1013.5
20260504041035 61 174 0.0 0.9 0.00 0.00 0.00 52 1013.5
20260504040533 61 173 0.0 0.0 0.00 0.00 0.00 52 1013.4
20260504040029 62 170 0.0 0.0 0.00 0.00 0.00 52 1013.4
20260504035526 62 174 0.0 0.0 0.00 0.00 0.00 51 1013.5
20260504035022 62 172 0.0 0.0 0.00 0.00 0.00 51 1013.5
20260504034520 62 168 0.9 0.9 0.00 0.00 0.00 50 1013.6
20260504034017 62 170 0.0 0.0 0.00 0.00 0.00 51 1013.6
20260504033515 62 177 0.9 1.7 0.00 0.00 0.00 51 1013.8
20260504033012 62 184 0.0 0.9 0.00 0.00 0.00 51 1013.6
20260504032509 62 180 0.0 0.0 0.00 0.00 0.00 51 1013.5
20260504032005 62 185 0.0 0.9 0.00 0.00 0.00 50 1013.8
20260504031502 62 195 0.0 0.9 0.00 0.00 0.00 50 1013.8
20260504030959 62 183 0.0 0.0 0.00 0.00 0.00 51 1013.6
20260504030456 62 179 0.0 0.9 0.00 0.00 0.00 50 1013.8
20260504025952 62 202 0.9 0.9 0.00 0.00 0.00 50 1013.8
20260504025449 61 177 0.0 0.0 0.00 0.00 0.00 51 1013.7
20260504024946 61 179 0.0 0.0 0.00 0.00 0.00 51 1013.6
20260504024443 61 169 0.0 0.0 0.00 0.00 0.00 51 1013.7
20260504023940 61 175 0.0 0.0 0.00 0.00 0.00 51 1013.8
20260504023436 61 182 0.0 0.9 0.00 0.00 0.00 51 1013.7
20260504022932 61 171 0.0 0.0 0.00 0.00 0.00 51 1013.8
20260504022429 61 178 0.0 0.0 0.00 0.00 0.00 51 1013.7
20260504021925 61 176 0.0 0.0 0.00 0.00 0.00 51 1013.9
20260504021422 61 171 0.0 0.0 0.00 0.00 0.00 50 1013.6
20260504020920 61 173 0.0 0.0 0.00 0.00 0.00 50 1013.6
20260504020416 62 175 0.0 0.0 0.00 0.00 0.00 49 1013.7
20260504015913 62 175 0.0 0.0 0.00 0.00 0.00 48 1013.6
20260504015409 62 175 0.0 0.0 0.00 0.00 0.00 48 1013.7
20260504014905 62 173 0.0 0.0 0.00 0.00 0.00 48 1013.6
20260504014401 62 172 0.0 0.0 0.00 0.00 0.00 47 1013.7
20260504013858 63 171 0.0 0.0 0.00 0.00 0.00 47 1013.7
20260504013356 63 174 0.0 0.0 0.00 0.00 0.00 47 1013.5
20260504012853 63 176 0.0 0.0 0.00 0.00 0.00 46 1013.5
20260504012351 64 175 0.0 0.0 0.00 0.00 0.00 46 1013.6
20260504011848 64 176 0.0 0.0 0.00 0.00 0.00 45 1013.3
20260504011344 64 177 0.0 0.0 0.00 0.00 0.00 45 1013.4
20260504010840 64 176 0.0 0.0 0.00 0.00 0.00 45 1013.4
20260504010336 64 178 0.0 0.0 0.00 0.00 0.00 44 1013.4
20260504005833 65 174 0.0 0.0 0.00 0.00 0.00 44 1013.5
20260504005330 65 173 0.0 0.0 0.00 0.00 0.00 44 1013.4
20260504004827 65 173 0.0 0.0 0.00 0.00 0.00 44 1013.3
20260504004325 66 166 0.0 0.0 0.00 0.00 0.00 42 1013.3
20260504003821 66 181 0.0 0.0 0.00 0.00 0.00 41 1013.5
20260504003318 67 174 0.0 0.0 0.00 0.00 0.00 41 1013.4
20260504002815 67 189 0.9 0.9 0.00 0.00 0.00 41 1013.4
20260504002312 67 174 0.0 0.0 0.00 0.00 0.00 41 1013.6
20260504001809 68 181 0.9 0.9 0.00 0.00 0.00 40 1013.5
20260504001306 68 183 0.0 0.9 0.00 0.00 0.00 40 1013.7
20260504000803 68 168 0.0 0.0 0.00 0.00 0.00 39 1013.5
20260504000300 68 185 0.9 0.9 0.00 0.00 0.00 38 1013.6
20260503235758 69 178 0.0 0.9 0.00 0.00 0.00 39 1013.7
20260503235255 69 182 0.9 1.7 0.00 0.00 0.00 38 1013.7
20260503234753 69 176 0.0 0.0 0.00 0.00 0.00 38 1013.8
20260503234250 69 185 0.0 0.9 0.00 0.00 0.00 38 1013.7
20260503233747 69 170 0.0 0.0 0.00 0.00 0.00 38 1013.9
20260503233243 70 175 0.9 0.9 0.00 0.00 0.00 38 1013.9
20260503232740 70 172 0.0 0.0 0.00 0.00 0.00 37 1014.0
20260503232237 70 171 1.7 1.7 0.00 0.00 0.00 37 1014.2
20260503231736 71 171 0.9 1.7 0.00 0.00 0.00 35 1014.1
20260503231232 71 184 0.9 1.7 0.00 0.00 0.00 37 1014.3
20260503230728 71 174 0.0 0.0 0.00 0.00 0.00 36 1014.2
20260503230226 71 193 0.0 0.9 0.00 0.00 0.00 35 1014.2
20260503225723 71 161 0.9 0.9 0.00 0.00 0.00 36 1014.4
20260503225223 71 208 0.9 1.7 0.00 0.00 0.00 37 1014.4
20260503224720 71 209 1.7 2.6 0.00 0.00 0.00 36 1014.4
20260503224218 72 164 0.9 0.9 0.00 0.00 0.00 35 1014.6
20260503223715 72 141 0.9 1.7 0.00 0.00 0.00 35 1014.7
20260503223213 72 186 0.0 0.9 0.00 0.00 0.00 35 1014.6
20260503222709 72 158 0.0 0.9 0.00 0.00 0.00 35 1014.8
20260503222207 72 192 1.7 1.7 0.00 0.00 0.00 33 1014.6
20260503221705 72 198 1.7 1.7 0.00 0.00 0.00 34 1014.6
20260503221202 72 183 0.9 1.7 0.00 0.00 0.00 34 1014.8
20260503220659 72 177 0.9 0.9 0.00 0.00 0.00 34 1014.8
20260503220155 72 171 0.9 0.9 0.00 0.00 0.00 33 1014.8
20260503215652 72 174 0.9 0.9 0.00 0.00 0.00 34 1014.8
20260503215149 72 190 0.9 0.9 0.00 0.00 0.00 33 1014.9
20260503214648 72 183 0.9 0.9 0.00 0.00 0.00 35 1014.8
20260503214144 73 189 0.9 1.7 0.00 0.00 0.00 33 1015.1
20260503213643 73 174 0.9 0.9 0.00 0.00 0.00 34 1015.2
20260503213139 73 192 3.5 3.5 0.00 0.00 0.00 31 1015.3
20260503212637 74 221 3.5 3.5 0.00 0.00 0.00 30 1015.4
20260503212134 74 169 1.7 1.7 0.00 0.00 0.00 31 1015.5
20260503211632 74 174 0.9 1.7 0.00 0.00 0.00 32 1015.4
20260503211127 74 173 0.9 0.9 0.00 0.00 0.00 34 1015.5
20260503210624 74 210 1.7 1.7 0.00 0.00 0.00 33 1015.8
20260503210120 74 204 0.9 1.7 0.00 0.00 0.00 32 1015.8
20260503205616 73 188 0.0 0.9 0.00 0.00 0.00 34 1015.8
20260503205112 73 203 4.3 6.1 0.00 0.00 0.00 32 1016.0
20260503204609 73 150 1.7 2.6 0.00 0.00 0.00 33 1016.1
20260503204107 74 212 3.5 6.1 0.00 0.00 0.00 31 1016.3
20260503203604 73 188 0.9 1.7 0.00 0.00 0.00 35 1016.2
20260503203101 73 209 3.5 3.5 0.00 0.00 0.00 32 1016.6
20260503202558 73 182 0.9 0.9 0.00 0.00 0.00 34 1016.7
20260503202056 73 220 4.3 6.1 0.00 0.00 0.00 32 1016.7
20260503201554 73 143 0.0 0.9 0.00 0.00 0.00 34 1016.7
20260503201051 73 168 0.0 0.9 0.00 0.00 0.00 33 1016.7
20260503200547 74 156 1.7 2.6 0.00 0.00 0.00 33 1017.1
20260503200044 73 235 3.5 3.5 0.00 0.00 0.00 33 1017.0
20260503195541 73 176 0.9 0.9 0.00 0.00 0.00 35 1017.3
20260503195038 73 178 0.9 1.7 0.00 0.00 0.00 36 1017.3
20260503194535 72 180 0.9 1.7 0.00 0.00 0.00 34 1017.6
20260503194035 72 195 0.9 1.7 0.00 0.00 0.00 36 1017.8
20260503193532 71 200 1.7 1.7 0.00 0.00 0.00 37 1018.0
20260503193027 71 198 2.6 2.6 0.00 0.00 0.00 35 1018.1
20260503192523 72 202 1.7 2.6 0.00 0.00 0.00 34 1018.1
20260503192020 72 212 1.7 1.7 0.00 0.00 0.00 35 1018.4
20260503191516 72 225 1.7 2.6 0.00 0.00 0.00 34 1018.5
20260503191013 72 204 1.7 1.7 0.00 0.00 0.00 36 1018.4
20260503190510 71 218 3.5 3.5 0.00 0.00 0.00 35 1018.4
20260503190008 71 174 1.7 2.6 0.00 0.00 0.00 35 1018.6
20260503185504 71 187 0.9 1.7 0.00 0.00 0.00 33 1018.3
20260503185003 71 196 1.7 1.7 0.00 0.00 0.00 33 1018.7
20260503184500 71 211 0.9 1.7 0.00 0.00 0.00 34 1018.8
20260503183956 70 197 2.6 2.6 0.00 0.00 0.00 35 1018.7
20260503183453 70 213 2.6 2.6 0.00 0.00 0.00 35 1018.8
20260503182950 70 218 2.6 2.6 0.00 0.00 0.00 37 1019.0
20260503182449 69 221 1.7 1.7 0.00 0.00 0.00 37 1019.0
20260503181946 69 220 1.7 2.6 0.00 0.00 0.00 37 1019.1
20260503181443 70 225 1.7 3.5 0.00 0.00 0.00 36 1019.3
20260503180939 70 173 0.9 1.7 0.00 0.00 0.00 37 1019.3
20260503180437 69 208 1.7 2.6 0.00 0.00 0.00 41 1019.4
20260503175934 69 184 0.9 1.7 0.00 0.00 0.00 41 1019.3
20260503175432 69 196 0.9 0.9 0.00 0.00 0.00 37 1019.5
20260503174927 69 173 1.7 1.7 0.00 0.00 0.00 39 1019.6
20260503174426 69 165 1.7 1.7 0.00 0.00 0.00 39 1020.0
20260503173926 69 179 0.9 0.9 0.00 0.00 0.00 40 1019.9
20260503173422 69 217 1.7 1.7 0.00 0.00 0.00 38 1020.0
20260503172919 68 71 0.9 1.7 0.00 0.00 0.00 38 1019.8
20260503172417 68 134 4.3 6.1 0.00 0.00 0.00 36 1019.9
20260503171913 68 171 1.7 1.7 0.00 0.00 0.00 39 1019.9
20260503171410 67 209 2.6 2.6 0.00 0.00 0.00 38 1020.1
20260503170907 68 204 3.5 3.5 0.00 0.00 0.00 39 1020.4
20260503170403 68 157 0.9 1.7 0.00 0.00 0.00 38 1020.1